Hourly Weather Staryj Sambor

Today, 3 July, Friday

Time Temperature Precipitation Wind Pressure Humidity
00:00 +19°C° 0 mm 1 mps 724 mmHg 92%
01:00 +19°C° 0 mm 1 mps 724 mmHg 92%
02:00 +19°C° 0 mm 1 mps 724 mmHg 91%
03:00 +19°C° 0 mm 1 mps 724 mmHg 92%
04:00 +17°C° 0 mm 0 mps 724 mmHg 92%
05:00 +16°C° 0 mm 0 mps 723 mmHg 93%
06:00 +18°C° 0 mm 0 mps 724 mmHg 90%
07:00 +21°C° 0 mm 1 mps 724 mmHg 88%
08:00 +23°C° 0 mm 1 mps 725 mmHg 86%
09:00 +24°C° 0.1 mm 1 mps 725 mmHg 81%
10:00 +25°C° 0.1 mm 1 mps 725 mmHg 76%
11:00 +26°C° 0.1 mm 1 mps 725 mmHg 72%
12:00 +26°C° 1 mm 2 mps 725 mmHg 75%
13:00 +26°C° 1 mm 2 mps 725 mmHg 78%
14:00 +25°C° 1 mm 3 mps 725 mmHg 81%
15:00 +25°C° 1.1 mm 3 mps 725 mmHg 83%
16:00 +24°C° 1.1 mm 3 mps 725 mmHg 84%
17:00 +23°C° 1.1 mm 4 mps 725 mmHg 86%
18:00 +22°C° 0.3 mm 3 mps 725 mmHg 88%
19:00 +21°C° 0.3 mm 3 mps 726 mmHg 91%
20:00 +20°C° 0.3 mm 2 mps 726 mmHg 94%
21:00 +19°C° 0.1 mm 2 mps 726 mmHg 95%
22:00 +18°C° 0.1 mm 2 mps 726 mmHg 96%
23:00 +18°C° 0.1 mm 2 mps 727 mmHg 97%

Tomorrow, 4 July, Saturday

Time Temperature Precipitation Wind Pressure Humidity
00:00 +17°C° 0 mm 2 mps 727 mmHg 97%
01:00 +17°C° 0 mm 2 mps 727 mmHg 97%
02:00 +17°C° 0 mm 2 mps 727 mmHg 97%
03:00 +18°C° 0 mm 1 mps 727 mmHg 97%
04:00 +16°C° 0 mm 1 mps 727 mmHg 98%
05:00 +16°C° 0 mm 1 mps 727 mmHg 98%
06:00 +18°C° 0 mm 1 mps 728 mmHg 97%
07:00 +17°C° 0 mm 2 mps 728 mmHg 96%
08:00 +18°C° 0 mm 2 mps 728 mmHg 94%
09:00 +18°C° 0 mm 2 mps 728 mmHg 92%
10:00 +19°C° 0 mm 2 mps 728 mmHg 90%
11:00 +19°C° 0 mm 2 mps 729 mmHg 88%
12:00 +20°C° 0 mm 2 mps 728 mmHg 80%
13:00 +21°C° 0 mm 3 mps 728 mmHg 73%
14:00 +24°C° 0 mm 3 mps 728 mmHg 66%
15:00 +24°C° 0 mm 3 mps 728 mmHg 67%
16:00 +24°C° 0 mm 3 mps 728 mmHg 67%
17:00 +24°C° 0 mm 2 mps 728 mmHg 68%
18:00 +23°C° 0 mm 2 mps 728 mmHg 74%
19:00 +20°C° 0 mm 2 mps 728 mmHg 80%
20:00 +20°C° 0 mm 1 mps 728 mmHg 87%
21:00 +19°C° 0 mm 1 mps 728 mmHg 89%
22:00 +18°C° 0 mm 1 mps 728 mmHg 91%
23:00 +15°C° 0 mm 0 mps 728 mmHg 93%

Day after tomorrow, 5 July, Sunday

Time Temperature Precipitation Wind Pressure Humidity
00:00 +15°C° 0 mm 0 mps 728 mmHg 93%
01:00 +15°C° 0 mm 0 mps 728 mmHg 94%
02:00 +14°C° 0 mm 0 mps 728 mmHg 94%
03:00 +14°C° 0 mm 0 mps 728 mmHg 94%
04:00 +14°C° 0 mm 0 mps 728 mmHg 95%
05:00 +14°C° 0 mm 0 mps 728 mmHg 95%
06:00 +16°C° 0 mm 0 mps 728 mmHg 89%
07:00 +19°C° 0 mm 1 mps 728 mmHg 84%
08:00 +21°C° 0 mm 1 mps 728 mmHg 79%
09:00 +22°C° 0 mm 1 mps 728 mmHg 74%
10:00 +23°C° 0 mm 1 mps 728 mmHg 70%
11:00 +24°C° 0 mm 2 mps 728 mmHg 66%
12:00 +24°C° 0 mm 2 mps 728 mmHg 66%
13:00 +25°C° 0 mm 2 mps 728 mmHg 65%
14:00 +25°C° 0 mm 2 mps 727 mmHg 65%
15:00 +25°C° 0 mm 2 mps 727 mmHg 65%
16:00 +26°C° 0 mm 2 mps 727 mmHg 65%
17:00 +26°C° 0 mm 2 mps 727 mmHg 66%
18:00 +24°C° 0 mm 1 mps 727 mmHg 71%
19:00 +22°C° 0 mm 1 mps 727 mmHg 77%
20:00 +19°C° 0 mm 0 mps 727 mmHg 83%
21:00 +18°C° 0 mm 0 mps 727 mmHg 85%
22:00 +17°C° 0 mm 0 mps 727 mmHg 87%
23:00 +16°C° 0 mm 0 mps 727 mmHg 89%

6 July, Monday

Time Temperature Precipitation Wind Pressure Humidity
00:00 +16°C° 0 mm 0 mps 727 mmHg 90%
01:00 +16°C° 0 mm 0 mps 726 mmHg 91%
02:00 +18°C° 0 mm 1 mps 726 mmHg 91%
03:00 +18°C° 0 mm 1 mps 726 mmHg 91%
04:00 +16°C° 0 mm 1 mps 726 mmHg 91%
05:00 +16°C° 0 mm 1 mps 726 mmHg 91%
06:00 +19°C° 0 mm 1 mps 726 mmHg 86%
07:00 +21°C° 0 mm 1 mps 726 mmHg 80%
08:00 +23°C° 0 mm 1 mps 726 mmHg 75%
09:00 +25°C° 0 mm 1 mps 726 mmHg 70%
10:00 +26°C° 0 mm 1 mps 726 mmHg 66%
11:00 +27°C° 0 mm 1 mps 726 mmHg 61%
12:00 +28°C° 0 mm 1 mps 726 mmHg 60%
13:00 +28°C° 0 mm 1 mps 725 mmHg 60%
14:00 +29°C° 0 mm 1 mps 725 mmHg 59%
15:00 +28°C° 0.3 mm 1 mps 725 mmHg 63%
16:00 +28°C° 0.3 mm 1 mps 724 mmHg 66%
17:00 +28°C° 0.3 mm 1 mps 724 mmHg 69%
18:00 +26°C° 0.5 mm 1 mps 724 mmHg 76%
19:00 +25°C° 0.5 mm 1 mps 724 mmHg 82%
20:00 +23°C° 0.5 mm 1 mps 723 mmHg 89%
21:00 +22°C° 0.9 mm 1 mps 723 mmHg 90%
22:00 +21°C° 0.9 mm 1 mps 724 mmHg 92%
23:00 +20°C° 0.9 mm 1 mps 724 mmHg 94%

7 July, Tuesday

Time Temperature Precipitation Wind Pressure Humidity
00:00 +20°C° 0.5 mm 1 mps 724 mmHg 95%
01:00 +18°C° 0.5 mm 2 mps 724 mmHg 95%
02:00 +18°C° 0.5 mm 2 mps 724 mmHg 96%
03:00 +18°C° 0.2 mm 3 mps 724 mmHg 96%
04:00 +17°C° 0.2 mm 4 mps 724 mmHg 96%
05:00 +16°C° 0.2 mm 5 mps 724 mmHg 96%
06:00 +15°C° 0.2 mm 5 mps 725 mmHg 96%
07:00 +14°C° 0.2 mm 5 mps 725 mmHg 96%
08:00 +13°C° 0.2 mm 5 mps 726 mmHg 95%
09:00 +13°C° 0.1 mm 4 mps 726 mmHg 93%
10:00 +14°C° 0.1 mm 4 mps 726 mmHg 91%
11:00 +14°C° 0.1 mm 4 mps 726 mmHg 89%
12:00 +14°C° 0 mm 4 mps 726 mmHg 84%
13:00 +15°C° 0 mm 4 mps 726 mmHg 79%
14:00 +15°C° 0 mm 5 mps 726 mmHg 75%
15:00 +15°C° 0.1 mm 5 mps 726 mmHg 78%
16:00 +14°C° 0.1 mm 5 mps 726 mmHg 82%
17:00 +13°C° 0.1 mm 5 mps 727 mmHg 85%
18:00 +12°C° 0.6 mm 4 mps 727 mmHg 89%
19:00 +12°C° 0.6 mm 3 mps 727 mmHg 93%
20:00 +11°C° 0.6 mm 3 mps 727 mmHg 97%
21:00 +12°C° 1.1 mm 2 mps 727 mmHg 97%
22:00 +12°C° 1.1 mm 2 mps 727 mmHg 97%
23:00 +12°C° 1.1 mm 2 mps 727 mmHg 97%

8 July, Wednesday

Time Temperature Precipitation Wind Pressure Humidity
00:00 +12°C° 0.2 mm 2 mps 727 mmHg 97%
01:00 +12°C° 0.2 mm 2 mps 728 mmHg 96%
02:00 +12°C° 0.2 mm 2 mps 728 mmHg 96%
03:00 +10°C° 0 mm 2 mps 728 mmHg 96%
04:00 +9°C° 0 mm 2 mps 728 mmHg 96%
05:00 +9°C° 0 mm 2 mps 728 mmHg 96%
06:00 +10°C° 0 mm 3 mps 728 mmHg 93%
07:00 +11°C° 0 mm 3 mps 729 mmHg 89%
08:00 +12°C° 0 mm 3 mps 729 mmHg 85%
09:00 +13°C° 0 mm 3 mps 729 mmHg 77%
10:00 +15°C° 0 mm 4 mps 729 mmHg 70%
11:00 +17°C° 0 mm 4 mps 729 mmHg 62%
12:00 +18°C° 0.1 mm 4 mps 729 mmHg 61%
13:00 +18°C° 0.1 mm 4 mps 729 mmHg 59%
14:00 +19°C° 0.1 mm 4 mps 729 mmHg 58%
15:00 +19°C° 0.1 mm 4 mps 729 mmHg 59%
16:00 +18°C° 0.1 mm 4 mps 729 mmHg 61%
17:00 +18°C° 0.1 mm 4 mps 729 mmHg 62%
18:00 +17°C° 0 mm 3 mps 729 mmHg 69%
19:00 +16°C° 0 mm 3 mps 729 mmHg 77%
20:00 +14°C° 0 mm 2 mps 729 mmHg 84%
21:00 +13°C° 0 mm 2 mps 730 mmHg 86%
22:00 +12°C° 0 mm 2 mps 730 mmHg 88%
23:00 +11°C° 0 mm 1 mps 730 mmHg 90%
Show more